星链-37141(STARLINK-37141)

导读

STARLINK-37141(NORAD编号68249)是美国太空探索技术公司(SpaceX)星链计划中的一颗低轨卫星,于2024年12月8日发射入轨,采用Starlink V1.0平台,运行在近地点约355公里、远地点约357公里的近地轨道,轨道倾角43.001°,周期约91.66分钟。 2025年12月,该卫星发生异常,轨道高度骤降约4000米,产生数十块碎片后与地面失联。SpaceX确认卫星大概率因内部问题发生爆炸,目前卫星仍保持大致完整但处于翻滚状态,预计会在几周内再入大气层烧毁,相关方面正在持续监测碎片轨迹。

基本信息
目录编号:
68249
目录名称:
STARLINK-37141
国际标识:
2026-054T
轨道中心:
EARTH
卫星名称:
星链-37141
卫星全名:
星链-37141(STARLINK-37141)
卫星状态:
在轨 (已飞行85 天)
发射日期:
2026-03-17 UTC
国别 :
美国 (US)
星等 :
--
轨道信息
数据来源 国际轨道数据
星历时间: 2026-06-10T05:37:18+0800
14小时前
查看轨道信息
半长轴: 6796.561km
偏心率: 0.0001349
轨道倾角: 53.157°
近地点辐角 75.151°
升交点赤经 222.608°
平近点角 284.965°
近地点: 417.507km
远地点: 419.341km
周期: 92.938分钟
每日圈数: 15.494194
详细信息
固有亮度:
5
最大亮度:
2.5
卫星平台:
Starlink V1.0
覆盖范围:
全球
运营商:
太空探索技术公司
运营商所在国:
美国
制造商(研发单位):
太空探索技术公司
制造商所在国:
美国
使用方式:
暂无
卫星简介
Starlink 计划是 SpaceX 推出的全球卫星互联网项目,通过发射低轨道卫星,为全球尤其是偏远地区提供高速、低延迟的互联网服务。自 2019 年起,Starlink 已部署数千颗卫星,旨在缩小全球数字鸿沟,推动互联网普及。该项目还为军事、航空等行业提供通信支持,带来广泛经济效益。
2D轨道图
3D轨道图
轨道高度分析图
轨道倾角分析图
轨道综合分析图
查看轨道综合分析图